Zhongxing 3B

operational
NORAD ID: 64062 Int'l Des: 2025-106 Owner: ZLZB Country: CN
HEOCIRCULARGSOGEO

关于 Zhongxing 3B

正在加载描述...

实时位置

正在加载3D地球...

即将过境

高度历史

Altitude vs Time

uPlot chart will show altitude changes over time

两行轨道根数

1 64062U 25106A 26061.85114212 -.00000062 00000-0 00000+0 0 9999
2 64062 0.0204 121.9403 0002056 194.4224 317.9578 1.00270922 2998
Epoch: Mar 2, 2026 • Age: 36 hours

当前状态

高度 35794.6 km
速度 3.07 km/s
星下点 0.02°N, 167.3°E
发射日期 May 20, 2025
运行时间 0.7 years
类型 other

技术详情

分类 Payload
质量 5000.00 kg
干质量 2500.00 kg
总质量 5000.00 kg
长度 5.00 m
直径 2.50 m
跨度 30.00 m
形状 Box + 2 Pan
制造商 SISE
平台类型 FY-4
阶段状态 In Orbit
所有者/国家 ZLZB/CN

大型星座

Loading constellations...